TimeIST,TemperatureF,Dew PointF,Humidity,Sea Level PressureIn,VisibilityMPH,Wind Direction,Wind SpeedMPH,Gust SpeedMPH,PrecipitationIn,Events,Conditions,WindDirDegrees,DateUTC
12:00 AM,78.8,73.4,83,29.74,1.9,East,6.9,-,N/A,,Scattered Clouds,80,2013-09-30 18:30:00
1:00 AM,77.0,73.4,89,29.74,1.9,East,6.9,-,N/A,,Scattered Clouds,90,2013-09-30 19:30:00
2:00 AM,77.0,73.4,89,29.74,1.9,East,5.8,-,N/A,,Scattered Clouds,90,2013-09-30 20:30:00
2:30 AM,77,74,89,29.68,1,ENE,4.6,,,,Mist,70,2013-09-30 21:00:00
5:30 AM,76,74,91,29.69,1,ENE,6.9,,,,Mist,70,2013-10-01 00:00:00
7:00 AM,77.0,73.4,89,29.77,1.9,ENE,6.9,-,N/A,,Partly Cloudy,70,2013-10-01 01:30:00
8:00 AM,78.8,75.2,89,29.80,1.9,East,8.1,-,N/A,,Scattered Clouds,90,2013-10-01 02:30:00
8:30 AM,79,75,84,29.73,1,East,9.2,,,,Mist,90,2013-10-01 03:00:00
9:00 AM,82.4,75.2,79,29.83,2.5,East,9.2,-,N/A,,Haze,100,2013-10-01 03:30:00
10:00 AM,84.2,75.2,74,29.83,2.5,East,9.2,-,N/A,,Haze,100,2013-10-01 04:30:00
11:30 AM,84,74,66,29.74,2,East,9.2,,,,Haze,90,2013-10-01 06:00:00
12:00 PM,84.2,73.4,70,29.80,3.1,East,11.5,-,N/A,,Haze,80,2013-10-01 06:30:00
1:00 PM,87.8,73.4,62,29.80,3.1,East,10.4,-,N/A,,Haze,80,2013-10-01 07:30:00
2:00 PM,86.0,73.4,66,29.77,3.1,NE,8.1,-,N/A,,Haze,40,2013-10-01 08:30:00
3:00 PM,86.0,71.6,62,29.74,2.5,ENE,9.2,-,N/A,,Haze,70,2013-10-01 09:30:00
4:00 PM,86.0,73.4,66,29.74,2.5,ENE,6.9,-,N/A,,Haze,70,2013-10-01 10:30:00
5:00 PM,86.0,73.4,66,29.74,2.5,East,8.1,-,N/A,,Haze,80,2013-10-01 11:30:00
5:30 PM,85,73,61,29.66,2,ENE,9.2,,,,Haze,70,2013-10-01 12:00:00
6:00 PM,84.2,73.4,70,29.74,2.5,ENE,5.8,-,N/A,,Haze,70,2013-10-01 12:30:00
7:00 PM,82.4,73.4,74,29.77,2.2,ENE,5.8,-,N/A,,Haze,70,2013-10-01 13:30:00
8:00 PM,82.4,71.6,70,29.80,2.2,ENE,5.8,-,N/A,,Haze,60,2013-10-01 14:30:00
8:30 PM,82,72,66,29.74,1,Calm,Calm,,,,Haze,,2013-10-01 15:00:00
10:00 PM,80.6,71.6,74,29.83,1.9,ENE,6.9,-,N/A,,Haze,70,2013-10-01 16:30:00
11:00 PM,78.8,73.4,83,29.86,1.9,ENE,8.1,-,N/A,,Haze,70,2013-10-01 17:30:00
11:30 PM,79,72,75,29.77,1,East,6.9,,,,Haze,90,2013-10-01 18:00:00